Weather History for Burlington, CO

Change the Weather History Date:

Saturday, October 5, 2013

  Actual Average Record
Temperature  
Mean Temperature 44 °F 55 °F  
Max Temperature 57 °F 70 °F 93 °F (2007)
Min Temperature 31 °F 40 °F 24 °F (1932)
Degree Days  
Heating Degree Days 21    
Moisture  
Dew Point 20 °F    
Average Humidity 44    
Maximum Humidity 70    
Minimum Humidity 19    
Precipitation  
Precipitation 0.00 in 0.04 in 0.83 in (1951)
Month to date precipitation 0.01 0.21  
Year to date precipitation 15.91 15.50  
Sea Level Pressure  
Sea Level Pressure 30.13 in    
Wind  
Wind Speed 20 mph (NW)    
Max Wind Speed 37 mph    
Max Gust Speed 47 mph    
Visibility 10 miles    
Events      
T = Trace of Precipitation, MM = Missing Value Source: NWS Daily Summary

Daily Weather History Graph

Daily Weather History Graph

Search for Another Location

Airport:

Trip Planner

Search our weather history database for the weather conditions in past years. The results will help you decide how hot, cold, wet, or windy it might be!

Date:

Astronomy

Oct. 05, 2013 Rise Set
Actual Time 6:49 AM MDT 6:24 PM MDT
Civil Twilight 6:22 AM MDT 6:51 PM MDT
Nautical Twilight 5:51 AM MDT 7:22 PM MDT
Astronomical Twilight 5:20 AM MDT 7:53 PM MDT
Moon 7:30 AM MDT (10/5) 6:45 PM MDT (10/5)
Length of Visible Light 12h 29m
Length of Day
11h 35m
New Moon, 1% of the Moon is Illuminated
Oct 5
New Moon
Oct 11
First Quarter
Oct 18
Full
Oct 26
Last Quarter
Nov 3
New

Hourly Weather History & Observations

Time (MDT) Temp. Windchill Dew Point Humidity Pressure Visibility Wind Dir Wind Speed Gust Speed Precip Events Conditions
12:53 AM 33.1 °F 23.9 °F 24.1 °F 70% 30.14 in 10.0 mi NNW 12.7 mph - N/A   Clear
1:53 AM 33.1 °F 22.6 °F 24.1 °F 70% 30.13 in 10.0 mi NNW 16.1 mph 23.0 mph N/A   Clear
2:53 AM 35.1 °F 21.6 °F 21.9 °F 59% 30.07 in 10.0 mi NW 31.1 mph 41.4 mph N/A   Clear
3:53 AM 36.0 °F 24.4 °F 21.9 °F 57% 30.11 in 10.0 mi NW 23.0 mph 38.0 mph N/A   Clear
4:53 AM 35.1 °F 24.5 °F 21.9 °F 59% 30.13 in 10.0 mi NW 18.4 mph - N/A   Clear
5:53 AM 37.0 °F 27.0 °F 21.9 °F 54% 30.14 in 10.0 mi NW 18.4 mph 26.5 mph N/A   Scattered Clouds
6:53 AM 37.9 °F 28.9 °F 21.9 °F 53% 30.16 in 10.0 mi NW 16.1 mph - N/A   Overcast
7:53 AM 39.0 °F 29.3 °F 21.9 °F 50% 30.18 in 10.0 mi NW 19.6 mph 33.4 mph N/A   Mostly Cloudy
8:53 AM 42.1 °F 32.6 °F 21.9 °F 45% 30.19 in 10.0 mi NW 23.0 mph 35.7 mph N/A   Overcast
9:53 AM 45.0 °F 35.8 °F 23.0 °F 42% 30.18 in 10.0 mi NW 26.5 mph 33.4 mph N/A   Overcast
10:53 AM 48.9 °F - 21.0 °F 33% 30.16 in 10.0 mi NW 29.9 mph 41.4 mph N/A   Mostly Cloudy
11:53 AM 51.1 °F - 18.0 °F 27% 30.14 in 10.0 mi NW 36.8 mph 44.9 mph N/A   Clear
12:53 PM 55.0 °F - 17.1 °F 23% 30.09 in 10.0 mi NNW 36.8 mph 47.2 mph N/A   Clear
1:53 PM 55.9 °F - 17.1 °F 22% 30.08 in 10.0 mi NW 28.8 mph 40.3 mph N/A   Clear
2:53 PM 55.9 °F - 14.0 °F 19% 30.06 in 10.0 mi NNW 33.4 mph 40.3 mph N/A   Clear
3:53 PM 52.0 °F - 14.0 °F 22% 30.08 in 10.0 mi NNW 26.5 mph 33.4 mph N/A   Clear
4:53 PM 54.0 °F - 12.0 °F 19% 30.07 in 10.0 mi NNW 26.5 mph 35.7 mph N/A   Clear
5:53 PM 51.1 °F - 14.0 °F 23% 30.10 in 10.0 mi NNW 18.4 mph 33.4 mph N/A   Clear
6:53 PM 46.9 °F - 16.0 °F 29% 30.12 in 10.0 mi NNW 12.7 mph 21.9 mph N/A   Clear
7:53 PM 42.1 °F 35.7 °F 19.0 °F 40% 30.14 in 10.0 mi NW 11.5 mph - N/A   Clear
8:53 PM 37.9 °F 32.1 °F 21.0 °F 51% 30.15 in 10.0 mi NNW 8.1 mph - N/A   Clear
9:53 PM 39.9 °F 32.9 °F 24.1 °F 53% 30.14 in 10.0 mi NW 11.5 mph - N/A   Clear
10:53 PM 34.0 °F 28.0 °F 23.0 °F 64% 30.16 in 10.0 mi WNW 6.9 mph - N/A   Clear
11:53 PM 32.0 °F 24.8 °F 23.0 °F 69% 30.16 in 10.0 mi West 8.1 mph - N/A   Clear